SCP
0 0 0 0 0 0 0 0 0 0 0 0 0 0 0 0 0 0 0 0 0 0 0 0 0 0 -0 -0 0 0 -0 0 0 0 0 0 0 0 0 0 0 0 0
0 0 0 0 0 0 0 0 0 0 0 0 0 0 0 0 0 0 0 0 0 0 0 0 0 0 0 -0 0 0 0 0 0 0 0 0 0 0 0 0 0 0 0
0 0 0 0 0 0 0 0 0 0 0 0 0 0 0 0 0 0 0 0 0 0 0 0 0 0 0 -0 -0 0 0 0 0 0 0 0 0 0 0 0 0 0 0
0 0 0 0 0 0 0 0 0 0 0 0 0 0 0 0 0 0 0 0 0 0 0 0 0 0 0 -0 -0 0 0 0 0 0 0 0 0 0 0 0 0 0 0
0 0 0 0 0 0 0 0 0 0 0 0 0 0 0 0 0 0 0 0 0 0 0 0 0 0 0 -0 -0 0 0 0 0 0 0 0 0 0 0 0 0 0 0
0 0 0 0 0 0 0 0 0 0 0 0 0 0 0 0 0 0 0 0 0 0 0 0 0 0 0 0 -0 -0 0 0 0 0 0 0 0 0 0 0 0 0 0
0 0 0 0 0 0 0 0 0 0 0 0 0 0 0 0 0 0 0 0 0 0 0 0 0 0 0 0 -0 -0 0 0 0 0 0 0 0 0 0 0 0 0 0
0 0 0 0 0 0 0 0 0 0 0 0 0 0 0 0 0 0 0 0 0 0 0 0 0 0 0 -0 0 -0 0 0 -0 0 0 0 0 0 0 0 0 0 0
0 0 0 0 0 0 0 0 0 0 0 0 0 0 0 0 0 0 0 0 0 0 0 0 0 0 0 -0 -0 -0 -0 0 0 0 0 0 0 0 0 0 0 0 0
0 0 0 0 0 0 0 0 0 0 0 0 0 0 0 0 0 0 0 0 0 0 0 0 0 0 0 -0 -0 -0 -0 0 0 0 -0 0 0 0 0 0 0 0 0
0 0 0 0 0 0 0 0 0 0 0 0 0 0 0 0 0 0 0 0 0 0 0 0 0 0 0 -0 -0 -0 -0 -0 0 0 0 0 0 0 0 0 0 0 0
0 0 0 0 0 0 0 0 0 0 0 0 0 0 0 0 0 0 0 0 0 0 0 0 0 0 0 0 0 -0 -0 -0 0 0 0 0 0 0 0 0 0 0 0
0 0 0 0 0 0 0 0 0 0 0 0 0 0 0 0 0 0 0 0 0 0 0 0 0 0 0 0 0 -0 0 0 0 0 0 0 0 0 0 0 0 0 0
0 0 0 0 0 0 0 0 0 0 0 0 0 0 0 0 0 0 0 0 0 0 0 0 0 0 0 0 0 0 0 0 0 0 0 0 0 0 0 0 0 0 0
0 0 0 0 0 0 0 0 0 0 0 0 0 0 0 0 0 0 0 0 0 0 0 0 0 0 0 0 0 -0 0 0 0 0 0 0 0 0 0 0 0 0 0
0 0 0 0 0 0 0 0 0 0 0 0 0 0 0 0 0 0 0 0 0 0 0 0 0 0 0 0 0 -0 0 0 0 0 0 0 0 0 0 0 0 0 0
0 0 0 0 0 0 0 0 0 0 0 0 0 0 0 0 0 0 0 0 0 0 0 0 0 0 0 0 0 0 0 0 0 0 0 0 0 0 0 0 0 0 0
0 0 0 0 0 0 0 0 0 0 0 0 0 0 0 0 0 0 0 0 0 0 0 0 0 0 0 0 0 0 0 0 0 0 0 0 0 0 0 0 0 0 0
0 0 0 0 0 0 0 0 0 0 0 0 0 0 0 0 0 0 0 0 0 0 0 0 0 0 0 0 0 0 0 0 0 0 0 0 0 0 0 0 0 0 0
0 0 0 0 0 0 0 0 0 0 0 0 0 0 0 0 0 0 0 0 0 0 0 0 0 0 0 0 0 0 0 0 0 0 0 0 0 0 0 0 0 0 0
0 0 0 0 0 0 0 0 0 0 0 0 0 0 0 0 0 0 0 0 0 0 0 0 0 0 0 0 0 0 0 0 0 0 0 0 0 0 0 0 0 0 0
0 0 0 0 0 0 0 0 0 0 0 0 0 0 -0 0 0 0 0 0 0 0 0 0 0 0 -0 -0 -0 0 0 0 0 0 0 0 0 0 0 0 0 0 0
0 0 0 0 0 0 0 0 0 0 0 0 0 0 0 0 0 0 0 0 0 0 0 0 0 0 0 0 0 -0 0 0 0 -0 0 0 0 0 0 0 0 0 0
0 0 0 0 0 0 0 0 0 0 0 0 0 0 0 0 0 0 0 0 0 0 0 0 0 0 0 0 0 0 0 0 0 0 -0 0 0 0 0 0 0 0 0
0 0 0 0 0 0 0 0 0 0 0 0 0 0 0 0 0 -0 0 0 0 0 0 0 0 0 0 0 -0 0 0 0 0 0 0 0 0 0 0 0 0 0 0
0 0 0 0 0 0 0 0 0 0 0 0 0 0 0 0 0 0 -0 -0 0 0 0 0 0 0 -0 -0 -0 0 0 0 0 0 0 0 0 0 0 0 0 0 0
Wind_Speed_500mb
63 55 47 37 29 23 17 13 17 18 21 24 29 34 38 41 38 39 39 37 32 31 36 44 51 57 65 69 70 62 58 52 51 49 41 45 52 54 57 55 52 57 50
66 58 49 40 31 24 18 12 13 16 18 21 26 32 35 39 40 39 39 35 31 30 33 39 47 55 61 67 68 63 53 46 44 43 38 41 48 48 48 50 48 45 47
71 62 55 45 34 25 19 12 10 13 15 18 23 29 33 37 39 38 38 33 30 26 29 35 44 50 57 64 59 60 53 45 44 39 39 34 35 39 42 41 45 43 45
73 67 58 48 36 27 20 14 9 10 12 15 21 27 30 35 37 36 36 32 28 25 25 30 37 42 49 54 55 57 52 47 43 42 40 37 31 29 31 33 39 39 43
76 71 61 49 39 31 23 17 11 8 9 11 17 23 28 33 36 36 34 30 26 22 22 25 30 35 37 40 47 54 53 47 44 40 40 40 38 34 31 28 33 33 35
81 74 62 51 43 35 27 20 14 9 7 9 15 20 26 31 33 33 31 28 23 20 19 23 27 32 36 36 40 42 45 46 44 43 37 37 35 29 23 20 17 14 24
82 75 64 55 47 39 31 24 18 11 6 6 11 18 24 29 31 30 28 25 21 19 19 23 28 32 37 37 38 38 41 38 36 37 37 33 31 25 19 17 18 15 23
83 77 69 60 51 43 35 29 21 15 8 3 8 15 21 27 28 27 25 22 20 19 20 23 28 32 37 40 37 38 38 37 37 35 35 28 22 20 13 13 14 18 21
82 85 77 66 56 48 40 33 26 18 12 4 5 12 18 23 25 24 21 19 19 18 20 25 28 31 35 37 38 37 36 35 32 28 28 25 19 14 10 10 15 14 15
82 88 80 68 58 50 42 37 31 23 15 7 1 8 15 20 23 19 17 17 18 17 20 22 26 31 35 37 38 38 37 40 37 31 25 22 18 12 7 8 10 9 18
79 89 83 72 61 53 47 43 35 28 19 11 3 6 12 16 20 17 15 15 17 19 20 22 27 32 36 37 37 38 39 36 31 27 25 23 21 16 8 7 8 10 11
76 87 82 74 67 60 55 48 41 32 23 15 6 3 8 14 18 14 12 13 16 18 20 23 29 33 35 37 37 35 32 29 26 25 27 27 26 21 15 8 9 4 2
71 88 86 79 72 66 60 53 46 37 29 20 12 5 5 10 15 14 9 10 13 15 18 23 29 30 31 34 37 38 33 31 28 25 28 31 28 21 16 15 15 12 21
71 89 91 86 79 72 65 56 49 41 32 24 16 9 4 7 11 13 9 6 9 12 16 20 24 28 31 32 39 44 43 37 33 27 26 26 22 20 16 18 25 26 23
70 90 95 91 84 78 68 60 51 41 32 25 19 13 7 6 9 13 11 5 7 11 13 16 15 17 26 34 44 48 47 38 32 26 25 28 26 23 19 22 24 24 34
72 94 101 98 91 82 74 66 55 42 38 32 23 14 9 5 9 11 12 8 6 8 12 11 12 19 25 36 45 48 51 45 40 30 29 29 28 28 22 20 18 27 37
72 92 106 102 96 89 80 73 67 55 43 33 28 20 13 7 9 9 11 13 9 8 9 10 13 17 23 31 39 42 50 49 43 34 31 29 28 28 26 22 21 29 38
72 88 105 106 100 91 85 78 69 59 54 45 36 27 19 12 11 9 11 15 13 10 9 10 12 16 19 23 30 35 42 50 47 40 32 30 29 26 26 26 26 30 35
76 86 104 107 101 93 89 82 70 60 53 47 41 33 25 18 14 11 11 12 15 14 11 10 11 13 15 18 25 31 38 47 50 43 36 31 31 27 24 24 23 24 24
74 81 101 109 106 99 94 86 77 68 60 49 43 37 31 25 19 15 12 11 14 16 15 12 12 13 12 14 20 24 30 38 46 45 41 34 30 29 26 23 21 23 24
76 82 99 109 108 104 100 92 84 73 63 54 48 41 34 29 24 19 15 12 12 16 15 15 16 15 12 12 15 19 24 33 40 44 42 38 31 30 27 27 25 26 29
80 84 97 111 111 107 103 95 86 76 67 59 53 49 45 39 32 27 21 15 12 14 15 13 17 18 16 12 13 15 18 24 31 38 42 38 33 28 27 26 27 28 29
83 87 94 107 113 108 104 97 89 80 72 64 57 54 49 44 39 33 28 22 16 13 13 13 13 16 19 15 14 13 14 17 22 30 37 37 35 29 29 28 28 31 30
84 89 96 105 115 113 108 100 94 84 76 69 63 57 50 46 42 37 32 28 22 17 13 13 11 13 16 17 16 15 13 14 16 21 28 34 35 31 28 30 32 35 33
88 91 99 105 115 118 110 104 97 89 82 74 67 61 54 50 47 42 37 33 29 22 17 14 11 11 13 15 15 15 15 13 13 16 20 27 32 31 29 30 30 32 31
94 96 100 105 112 119 114 107 100 94 87 78 70 64 57 51 48 44 40 37 33 29 23 18 14 11 12 12 13 14 16 16 12 14 16 19 25 29 28 28 29 28 29
Wind_Direction_500mb
218 220 222 225 232 241 259 292 315 335 352 1 359 356 4 6 2 3 3 0 354 357 0 2 5 11 13 16 16 10 14 16 17 18 28 35 45 52 59 65 80 86 89
215 218 222 223 227 232 247 273 307 328 348 1 1 356 2 5 8 1 2 1 357 356 2 4 6 12 15 18 13 11 14 20 26 26 28 36 44 48 56 64 66 78 88
213 215 219 221 223 224 236 257 291 320 342 359 2 357 1 9 10 360 360 4 360 358 4 5 6 11 13 15 11 13 15 21 32 36 41 46 44 46 50 60 67 76 85
213 213 216 218 218 217 226 243 265 304 335 358 6 359 0 10 8 360 2 6 3 1 8 6 8 13 17 8 12 14 17 23 30 34 40 45 45 42 48 54 64 74 84
213 213 213 214 214 213 217 230 245 281 324 354 11 2 359 11 7 3 6 8 8 10 12 8 11 15 22 15 13 11 16 21 26 33 35 39 39 43 48 52 68 72 85
212 213 211 210 212 209 211 218 229 252 300 348 13 5 359 10 12 9 9 10 16 22 21 11 10 13 24 20 17 18 18 17 22 24 28 32 36 45 56 61 53 74 86
213 211 209 209 210 207 208 213 217 228 267 339 12 4 0 10 15 12 13 18 30 32 30 16 11 17 19 18 16 18 22 23 24 20 21 24 28 33 50 48 45 75 113
211 209 209 208 208 206 205 209 211 218 235 304 13 5 3 13 18 15 19 29 39 36 31 20 13 15 18 14 16 15 20 19 22 22 18 17 24 29 34 49 49 95 115
210 208 208 207 207 205 205 207 207 209 223 246 4 10 7 15 22 20 26 37 43 38 31 23 18 18 16 13 12 16 17 19 20 20 19 16 17 30 47 73 81 72 102
209 207 206 206 205 205 204 206 206 206 214 215 312 20 10 18 26 28 31 39 47 41 35 30 23 21 16 15 11 10 13 11 9 12 21 25 24 37 60 100 113 85 113
207 205 204 202 202 202 205 205 203 203 206 209 190 40 17 20 32 38 37 34 44 40 34 33 32 28 23 19 16 13 10 4 3 11 22 28 29 37 62 124 137 131 108
208 203 201 201 200 201 204 202 202 200 198 201 186 83 29 23 36 46 44 35 41 42 41 40 37 31 25 23 22 20 11 8 11 15 28 31 35 44 58 90 147 165 139
207 202 200 200 201 203 203 202 201 198 198 196 185 155 51 28 36 46 57 39 48 49 51 49 42 34 32 31 29 25 23 25 27 33 32 29 33 33 62 91 102 102 121
208 201 200 201 199 202 202 203 203 200 198 195 186 172 132 51 40 41 47 61 68 67 58 52 46 36 34 39 37 31 28 29 30 37 38 35 37 48 78 100 112 115 120
207 203 201 201 201 201 202 203 200 199 199 198 190 183 166 98 59 42 38 69 95 89 67 54 48 45 45 45 38 33 30 35 40 49 48 45 51 67 82 107 115 124 126
207 203 202 203 200 201 200 197 196 198 200 196 190 186 172 130 75 46 36 60 113 103 85 72 62 55 49 48 40 30 29 37 43 54 57 57 64 69 87 108 120 132 129
212 206 204 203 203 200 200 200 194 190 193 198 195 192 190 161 109 67 51 69 92 116 118 99 80 68 58 53 47 33 31 38 45 55 60 62 73 79 91 102 120 133 132
213 210 207 205 204 202 202 201 200 199 194 192 196 192 189 186 137 100 72 66 75 97 139 127 100 81 70 62 56 46 39 42 49 55 63 65 70 82 89 100 117 129 134
213 210 209 207 206 205 204 203 199 199 199 199 193 189 187 191 159 129 97 84 83 88 106 134 125 99 85 70 62 53 45 46 49 54 61 67 70 82 93 96 107 128 135
216 214 210 209 206 206 205 204 200 200 201 197 193 189 188 190 174 155 134 113 97 92 88 101 116 114 105 85 71 63 55 53 53 55 58 63 71 74 87 101 104 114 128
215 213 212 210 209 208 207 205 203 202 201 197 194 191 187 192 185 175 163 144 116 105 96 91 93 101 116 110 89 73 63 58 57 55 58 61 71 74 84 99 107 122 130
218 216 212 212 211 209 209 207 206 203 201 197 193 191 192 195 191 186 177 167 144 122 110 101 94 91 96 112 112 95 77 66 61 60 60 61 66 74 77 96 107 120 128
221 217 213 212 212 211 210 209 206 203 201 198 195 197 194 196 194 191 183 178 170 153 132 116 104 98 91 91 106 113 101 86 72 65 63 63 65 76 78 92 106 118 122
223 220 214 212 211 211 210 208 206 204 202 199 197 198 195 197 197 195 190 185 180 174 160 138 124 110 103 93 86 98 115 111 95 78 66 65 68 72 85 91 109 120 119
224 221 215 214 210 209 209 208 206 204 202 200 199 197 195 197 197 196 195 192 186 185 183 163 151 136 115 110 100 89 96 115 122 104 84 71 67 74 89 96 107 117 118
224 221 216 213 211 209 208 206 205 204 203 200 199 198 197 198 198 197 197 197 191 188 191 183 174 169 142 126 116 103 100 98 118 129 113 91 77 72 80 97 104 113 120
Wind_Speed_850mb
63 55 47 37 29 23 17 13 17 18 21 24 29 34 38 41 38 39 39 37 32 31 36 44 51 57 65 69 70 62 58 52 51 49 41 45 52 54 57 55 52 57 50
66 58 49 40 31 24 18 12 13 16 18 21 26 32 35 39 40 39 39 35 31 30 33 39 47 55 61 67 68 63 53 46 44 43 38 41 48 48 48 50 48 45 47
71 62 55 45 34 25 19 12 10 13 15 18 23 29 33 37 39 38 38 33 30 26 29 35 44 50 57 64 59 60 53 45 44 39 39 34 35 39 42 41 45 43 45
73 67 58 48 36 27 20 14 9 10 12 15 21 27 30 35 37 36 36 32 28 25 25 30 37 42 49 54 55 57 52 47 43 42 40 37 31 29 31 33 39 39 43
76 71 61 49 39 31 23 17 11 8 9 11 17 23 28 33 36 36 34 30 26 22 22 25 30 35 37 40 47 54 53 47 44 40 40 40 38 34 31 28 33 33 35
81 74 62 51 43 35 27 20 14 9 7 9 15 20 26 31 33 33 31 28 23 20 19 23 27 32 36 36 40 42 45 46 44 43 37 37 35 29 23 20 17 14 24
82 75 64 55 47 39 31 24 18 11 6 6 11 18 24 29 31 30 28 25 21 19 19 23 28 32 37 37 38 38 41 38 36 37 37 33 31 25 19 17 18 15 23
83 77 69 60 51 43 35 29 21 15 8 3 8 15 21 27 28 27 25 22 20 19 20 23 28 32 37 40 37 38 38 37 37 35 35 28 22 20 13 13 14 18 21
82 85 77 66 56 48 40 33 26 18 12 4 5 12 18 23 25 24 21 19 19 18 20 25 28 31 35 37 38 37 36 35 32 28 28 25 19 14 10 10 15 14 15
82 88 80 68 58 50 42 37 31 23 15 7 1 8 15 20 23 19 17 17 18 17 20 22 26 31 35 37 38 38 37 40 37 31 25 22 18 12 7 8 10 9 18
79 89 83 72 61 53 47 43 35 28 19 11 3 6 12 16 20 17 15 15 17 19 20 22 27 32 36 37 37 38 39 36 31 27 25 23 21 16 8 7 8 10 11
76 87 82 74 67 60 55 48 41 32 23 15 6 3 8 14 18 14 12 13 16 18 20 23 29 33 35 37 37 35 32 29 26 25 27 27 26 21 15 8 9 4 2
71 88 86 79 72 66 60 53 46 37 29 20 12 5 5 10 15 14 9 10 13 15 18 23 29 30 31 34 37 38 33 31 28 25 28 31 28 21 16 15 15 12 21
71 89 91 86 79 72 65 56 49 41 32 24 16 9 4 7 11 13 9 6 9 12 16 20 24 28 31 32 39 44 43 37 33 27 26 26 22 20 16 18 25 26 23
70 90 95 91 84 78 68 60 51 41 32 25 19 13 7 6 9 13 11 5 7 11 13 16 15 17 26 34 44 48 47 38 32 26 25 28 26 23 19 22 24 24 34
72 94 101 98 91 82 74 66 55 42 38 32 23 14 9 5 9 11 12 8 6 8 12 11 12 19 25 36 45 48 51 45 40 30 29 29 28 28 22 20 18 27 37
72 92 106 102 96 89 80 73 67 55 43 33 28 20 13 7 9 9 11 13 9 8 9 10 13 17 23 31 39 42 50 49 43 34 31 29 28 28 26 22 21 29 38
72 88 105 106 100 91 85 78 69 59 54 45 36 27 19 12 11 9 11 15 13 10 9 10 12 16 19 23 30 35 42 50 47 40 32 30 29 26 26 26 26 30 35
76 86 104 107 101 93 89 82 70 60 53 47 41 33 25 18 14 11 11 12 15 14 11 10 11 13 15 18 25 31 38 47 50 43 36 31 31 27 24 24 23 24 24
74 81 101 109 106 99 94 86 77 68 60 49 43 37 31 25 19 15 12 11 14 16 15 12 12 13 12 14 20 24 30 38 46 45 41 34 30 29 26 23 21 23 24
76 82 99 109 108 104 100 92 84 73 63 54 48 41 34 29 24 19 15 12 12 16 15 15 16 15 12 12 15 19 24 33 40 44 42 38 31 30 27 27 25 26 29
80 84 97 111 111 107 103 95 86 76 67 59 53 49 45 39 32 27 21 15 12 14 15 13 17 18 16 12 13 15 18 24 31 38 42 38 33 28 27 26 27 28 29
83 87 94 107 113 108 104 97 89 80 72 64 57 54 49 44 39 33 28 22 16 13 13 13 13 16 19 15 14 13 14 17 22 30 37 37 35 29 29 28 28 31 30
84 89 96 105 115 113 108 100 94 84 76 69 63 57 50 46 42 37 32 28 22 17 13 13 11 13 16 17 16 15 13 14 16 21 28 34 35 31 28 30 32 35 33
88 91 99 105 115 118 110 104 97 89 82 74 67 61 54 50 47 42 37 33 29 22 17 14 11 11 13 15 15 15 15 13 13 16 20 27 32 31 29 30 30 32 31
94 96 100 105 112 119 114 107 100 94 87 78 70 64 57 51 48 44 40 37 33 29 23 18 14 11 12 12 13 14 16 16 12 14 16 19 25 29 28 28 29 28 29
Wind_Direction_850mb
218 220 222 225 232 241 259 292 315 335 352 1 359 356 4 6 2 3 3 0 354 357 0 2 5 11 13 16 16 10 14 16 17 18 28 35 45 52 59 65 80 86 89
215 218 222 223 227 232 247 273 307 328 348 1 1 356 2 5 8 1 2 1 357 356 2 4 6 12 15 18 13 11 14 20 26 26 28 36 44 48 56 64 66 78 88
213 215 219 221 223 224 236 257 291 320 342 359 2 357 1 9 10 360 360 4 360 358 4 5 6 11 13 15 11 13 15 21 32 36 41 46 44 46 50 60 67 76 85
213 213 216 218 218 217 226 243 265 304 335 358 6 359 0 10 8 360 2 6 3 1 8 6 8 13 17 8 12 14 17 23 30 34 40 45 45 42 48 54 64 74 84
213 213 213 214 214 213 217 230 245 281 324 354 11 2 359 11 7 3 6 8 8 10 12 8 11 15 22 15 13 11 16 21 26 33 35 39 39 43 48 52 68 72 85
212 213 211 210 212 209 211 218 229 252 300 348 13 5 359 10 12 9 9 10 16 22 21 11 10 13 24 20 17 18 18 17 22 24 28 32 36 45 56 61 53 74 86
213 211 209 209 210 207 208 213 217 228 267 339 12 4 0 10 15 12 13 18 30 32 30 16 11 17 19 18 16 18 22 23 24 20 21 24 28 33 50 48 45 75 113
211 209 209 208 208 206 205 209 211 218 235 304 13 5 3 13 18 15 19 29 39 36 31 20 13 15 18 14 16 15 20 19 22 22 18 17 24 29 34 49 49 95 115
210 208 208 207 207 205 205 207 207 209 223 246 4 10 7 15 22 20 26 37 43 38 31 23 18 18 16 13 12 16 17 19 20 20 19 16 17 30 47 73 81 72 102
209 207 206 206 205 205 204 206 206 206 214 215 312 20 10 18 26 28 31 39 47 41 35 30 23 21 16 15 11 10 13 11 9 12 21 25 24 37 60 100 113 85 113
207 205 204 202 202 202 205 205 203 203 206 209 190 40 17 20 32 38 37 34 44 40 34 33 32 28 23 19 16 13 10 4 3 11 22 28 29 37 62 124 137 131 108
208 203 201 201 200 201 204 202 202 200 198 201 186 83 29 23 36 46 44 35 41 42 41 40 37 31 25 23 22 20 11 8 11 15 28 31 35 44 58 90 147 165 139
207 202 200 200 201 203 203 202 201 198 198 196 185 155 51 28 36 46 57 39 48 49 51 49 42 34 32 31 29 25 23 25 27 33 32 29 33 33 62 91 102 102 121
208 201 200 201 199 202 202 203 203 200 198 195 186 172 132 51 40 41 47 61 68 67 58 52 46 36 34 39 37 31 28 29 30 37 38 35 37 48 78 100 112 115 120
207 203 201 201 201 201 202 203 200 199 199 198 190 183 166 98 59 42 38 69 95 89 67 54 48 45 45 45 38 33 30 35 40 49 48 45 51 67 82 107 115 124 126
207 203 202 203 200 201 200 197 196 198 200 196 190 186 172 130 75 46 36 60 113 103 85 72 62 55 49 48 40 30 29 37 43 54 57 57 64 69 87 108 120 132 129
212 206 204 203 203 200 200 200 194 190 193 198 195 192 190 161 109 67 51 69 92 116 118 99 80 68 58 53 47 33 31 38 45 55 60 62 73 79 91 102 120 133 132
213 210 207 205 204 202 202 201 200 199 194 192 196 192 189 186 137 100 72 66 75 97 139 127 100 81 70 62 56 46 39 42 49 55 63 65 70 82 89 100 117 129 134
213 210 209 207 206 205 204 203 199 199 199 199 193 189 187 191 159 129 97 84 83 88 106 134 125 99 85 70 62 53 45 46 49 54 61 67 70 82 93 96 107 128 135
216 214 210 209 206 206 205 204 200 200 201 197 193 189 188 190 174 155 134 113 97 92 88 101 116 114 105 85 71 63 55 53 53 55 58 63 71 74 87 101 104 114 128
215 213 212 210 209 208 207 205 203 202 201 197 194 191 187 192 185 175 163 144 116 105 96 91 93 101 116 110 89 73 63 58 57 55 58 61 71 74 84 99 107 122 130
218 216 212 212 211 209 209 207 206 203 201 197 193 191 192 195 191 186 177 167 144 122 110 101 94 91 96 112 112 95 77 66 61 60 60 61 66 74 77 96 107 120 128
221 217 213 212 212 211 210 209 206 203 201 198 195 197 194 196 194 191 183 178 170 153 132 116 104 98 91 91 106 113 101 86 72 65 63 63 65 76 78 92 106 118 122
223 220 214 212 211 211 210 208 206 204 202 199 197 198 195 197 197 195 190 185 180 174 160 138 124 110 103 93 86 98 115 111 95 78 66 65 68 72 85 91 109 120 119
224 221 215 214 210 209 209 208 206 204 202 200 199 197 195 197 197 196 195 192 186 185 183 163 151 136 115 110 100 89 96 115 122 104 84 71 67 74 89 96 107 117 118
224 221 216 213 211 209 208 206 205 204 203 200 199 198 197 198 198 197 197 197 191 188 191 183 174 169 142 126 116 103 100 98 118 129 113 91 77 72 80 97 104 113 120